Home > Time Zones > World Clock > Weather > Yemen > Aden > Past weeks

Flag for Yemen Weather past 2 weeks in Aden, Yemen

Now
79 °F

Passing clouds.


Feels Like: 80 °F
Forecast: 69 / 81 °F
Wind: 12 mph from Southeast

Location: Aden

Current Time: Feb 1, 2015 at 5:18:28 PM

Latest Report: Feb 1, 2015 at 5:00 PM


Visibility: N/A

Pressure: 29.95 "Hg

Humidity: 58%

Dew point: 63 °F

Location of AdenLocation

Historic Weather in Aden — Graph

°F

Aden temperature yesterday

Maximum temperature yesterday: 81 °F (at 11:00 AM)
Minimum temperature yesterday: 70 °F (at 5:00 AM)
Average temperature yesterday: 76 °F

Past Weeks' High & Low Weather Summary

 TemperatureHumidityPressure
High82 °F (Jan 18, 1:00 PM)74% (Jan 19, 7:00 AM)30.15 "Hg (Jan 19, 7:00 AM)
Low70 °F (Jan 31, 5:00 AM)40% (Jan 18, 3:00 PM)29.89 "Hg (Jan 19, 3:00 PM)
Average78 °F57%30.03 "Hg
* Reported Jan 17 4:00 PM — Feb 1 4:00 PM, Aden, Weather by CustomWeather, © 2014

Note: Actual official high and low records may vary slightly from our data, if they occured in-between our weather recording intervals... More about our weather records

Advertising

Aden weather history for previous 24 hours

 ConditionsComfort  
Time TempWeatherWind HumidityBarometerVisibility
4:00 PM
Feb 1
81 °FPassing clouds.13 mph54%29.95 "HgN/A
3:00 PM81 °FPassing clouds.13 mph51%29.98 "HgN/A
2:00 PM81 °FPassing clouds.13 mph48%29.98 "HgN/A
1:00 PM81 °FScattered clouds.14 mph51%30.01 "HgN/A
12:00 PM81 °FScattered clouds.12 mph51%30.04 "HgN/A
11:00 AM81 °FScattered clouds.12 mph48%30.07 "HgN/A
10:00 AM79 °FScattered clouds.10 mph48%30.09 "HgN/A
9:00 AM79 °FPartly sunny.13 mph54%30.09 "HgN/A
8:00 AM73 °FPartly sunny.5 mph69%30.07 "HgN/A
7:00 AM72 °FPartly sunny.6 mph73%30.07 "HgN/A
6:00 AM70 °FPassing clouds.3 mph73%30.01 "HgN/A
5:00 AM72 °FPassing clouds.3 mph69%30.01 "HgN/A
4:00 AM72 °FPassing clouds.2 mph73%30.01 "HgN/A
3:00 AM73 °FPassing clouds.3 mph69%30.01 "HgN/A
2:00 AM75 °FPassing clouds.2 mph65%30.04 "HgN/A
1:00 AM75 °FPassing clouds.3 mph65%30.04 "HgN/A
12:00 AM75 °FPassing clouds.3 mph65%30.07 "HgN/A
11:00 PM
Jan 31
81 °FPassing clouds.5 mph54%30.07 "HgN/A
10:00 PM77 °FPassing clouds.3 mph61%30.07 "HgN/A
9:00 PM77 °FPassing clouds.8 mph57%30.04 "HgN/A
8:00 PM77 °FPassing clouds.6 mph61%30.04 "HgN/A
7:00 PM77 °FPassing clouds.7 mph57%30.01 "HgN/A
6:00 PM79 °FPassing clouds.8 mph58%30.01 "HgN/A
5:00 PM79 °FScattered clouds.9 mph58%29.98 "HgN/A
Weather by CustomWeather, © 2014

See weather overviewHow to use our weather pages